Content
SEND FEEDBACK

Daily
Averages
Monthly
Summary
United States of America

ANN ARBOR, MICHIGAN


Home > North America > United States > Michigan
Elevation: 759 feet     Latitude: 42 17N     Longitude: 083 43W

WEATHER
 
SELECT A DAY
Number of Records: 208,835;   Date Range: 1/1/95 - 12/17/14
 
SHARE

PRINT THIS DATA

[ ← Previous Day ]
WEATHER ALMANAC - MARCH 30, 2013
[ Next Day → ]
[ °C ]   °F
Weather ElementAverageHighLow
Temperature41.4 °F55.9 °F (4:53 pm)21 °F (7:53 am)
Dewpoint22 °F28.9 °F (9:53 pm)16 °F (12:53 pm)
Humidity52 %92 % (7:53 am)22 % (2:53 pm)
Barometer30.12 in30.23 in (1:53 am)29.94 in (11:53 pm)
Wind Speed4.9 mph13.8 mph (1:53 pm)
Wind Gust20.7 mph (1:53 pm)
Weather ElementAverage
Visibility10 mi
Wind DirectionESE (113.5 °)

Weather ElementTotal
Precipitation---
Heating Degree Days26.6 (Base 65)
Averaged from 23 records on March 30, 2013
WEATHER CONDITIONS BREAKOUT
WIND DIRECTION BREAKOUT
WEATHER BY HOUR - MARCH 30, 2013
[ °C ]   °F
Local TimeTemperatureDewpointHumidityBarometerVisibilityWind DirectionWind SpeedGust SpeedPrecipitationEventsConditions
1:53 AM30.9 °F21.0 °F67 %30.23 in10.0 miCalmClear
2:53 AM28.0 °F19.9 °F72 %30.22 in10.0 miCalmClear
3:53 AM27.0 °F19.9 °F75 %30.22 in10.0 miCalmClear
4:53 AM27.0 °F21.9 °F81 %30.21 in10.0 miCalmClear
5:53 AM23.0 °F19.9 °F88 %30.21 in10.0 miCalmClear
6:53 AM21.9 °F19.0 °F89 %30.22 in10.0 miCalmClear
7:53 AM21.0 °F19.0 °F92 %30.23 in10.0 miCalmClear
8:53 AM34.0 °F28.0 °F79 %30.23 in10.0 miCalmClear
9:53 AM42.1 °F24.1 °F49 %30.20 in10.0 miWest (270°)3.5 mphClear
10:53 AM46.9 °F19.9 °F34 %30.19 in10.0 miVariable3.5 mphClear
11:53 AM50.0 °F19.9 °F31 %30.18 in10.0 miSW (230°)10.4 mph16.1 mphClear
12:53 PM50.0 °F16.0 °F26 %30.16 in10.0 miVariable5.8 mphClear
1:53 PM53.1 °F17.1 °F24 %30.13 in10.0 miSSW (210°)13.8 mph20.7 mphClear
2:53 PM54.0 °F16.0 °F22 %30.11 in10.0 miWSW (250°)9.2 mphClear
3:53 PM55.0 °F19.0 °F24 %30.07 in10.0 miSW (230°)10.4 mph20.7 mphClear
4:53 PM55.9 °F21.0 °F26 %30.04 in10.0 miSW (220°)10.4 mph16.1 mphClear
5:53 PM54.0 °F21.9 °F29 %30.02 in10.0 miSSW (200°)10.4 mph17.3 mphClear
6:53 PM53.1 °F23.0 °F31 %30.02 in10.0 miSSW (210°)10.4 mphClear
7:53 PM50.0 °F26.1 °F39 %30.01 in10.0 miSW (220°)9.2 mphClear
8:53 PM46.0 °F27.0 °F47 %29.99 in10.0 miSSW (200°)5.8 mphClear
9:53 PM45.0 °F28.9 °F53 %29.98 in10.0 miSouth (190°)4.6 mphClear
10:53 PM44.1 °F28.9 °F55 %29.96 in10.0 miSouth (180°)4.6 mphClear
11:53 PM41.0 °F28.9 °F62 %29.94 in10.0 miCalmClear
Hourly data recorded from KARB, located miles away from Ann Arbor, Michigan







STORIES FROM OUR PARTNERS